Simultaneous Nadir Overpasses (SNOs) Predictions

Prediction of SNOs between GOES-14 and AQUA Satellite Orbit:

Table of predicted SNOs for the next 14.0 days since TLE Epoch: 9/26/2025
Index Date Time (GOES-14) GOES-14 Lat,Lon AQUA Lat,Lon Distance(km) Time Diff (sec)
1 09/28/2025 09:51:18 -0.65,-108.42 -1.45,-104.67 426.34 80
2 09/28/2025 22:13:08 0.56,-108.37 0.34,-109.28 104.76 80
3 09/30/2025 21:49:45 0.62,-108.38 1.49,-104.22 472.37 80
4 10/01/2025 10:11:26 -0.54,-108.43 -0.48,-108.81 42.94 80
5 10/03/2025 22:09:51 0.51,-108.38 0.51,-108.35 3.26 80
6 10/06/2025 10:05:26 -0.50,-108.45 -0.60,-107.85 66.91 80
7 10/06/2025 22:27:15 0.40,-108.38 -0.50,-112.46 464.80 80
8 10/08/2025 22:03:48 0.46,-108.38 0.65,-107.38 113.85 80
9 10/09/2025 10:25:29 -0.36,-108.45 0.37,-111.97 399.63 80
